DW8534 Weather Reports


Display with metric or nautical units.
time (UTC)temp
F
wind
direction
speed
MPH
gust
MPH
rain 1hr
in
rain 24hr
in
rain mn
in
humidity
%
barometer
mb
20260906021527 85 105 2.0 0.0 0.00 0.00 0.00 68 1007.9
20260906020029 86 111 3.0 0.0 0.00 0.00 0.00 67 1007.6
20260906014532 86 115 4.0 0.0 0.00 0.00 0.00 66 1007.5
20260906013026 86 124 4.0 0.0 0.00 0.00 0.00 65 1007.1
20260906011526 87 119 5.0 0.0 0.00 0.00 0.00 65 1007.0
20260906010025 87 129 5.0 0.0 0.00 0.00 0.00 64 1007.1
20260906004525 88 107 9.0 0.0 0.00 0.00 0.00 63 1007.0
20260906003024 89 110 9.0 0.0 0.00 0.00 0.00 59 1007.0
20260906001524 91 102 11.0 0.0 0.00 0.00 0.00 56 1006.8
20260906000028 96 103 5.0 0.0 0.00 0.00 0.00 44 1006.5
20260905234522 97 107 3.0 0.0 0.00 0.00 0.00 43 1006.3
20260905233026 96 103 4.0 0.0 0.00 0.00 0.00 42 1006.0
20260905231522 96 120 5.0 0.0 0.00 0.00 0.00 43 1006.3
20260905230021 98 108 4.0 0.0 0.00 0.00 0.00 42 1006.1
20260905224520 98 132 2.0 0.0 0.00 0.00 0.00 40 1006.0
20260905223020 98 95 5.0 0.0 0.00 0.00 0.00 40 1006.0
20260905221520 97 101 7.0 0.0 0.00 0.00 0.00 41 1006.1
20260905220019 97 94 2.0 0.0 0.00 0.00 0.00 41 1006.2
20260905214519 99 132 2.0 0.0 0.00 0.00 0.00 38 1006.4
20260905213018 98 77 2.0 0.0 0.00 0.00 0.00 40 1006.5
20260905211516 98 84 3.0 0.0 0.00 0.00 0.00 40 1006.7
20260905210015 100 143 3.0 0.0 0.00 0.00 0.00 39 1006.7
20260905204514 99 207 3.0 0.0 0.00 0.00 0.00 40 1007.0
20260905203015 98 75 3.0 0.0 0.00 0.00 0.00 40 1007.3
20260905201512 99 101 4.0 0.0 0.00 0.00 0.00 38 1007.5
20260905200011 98 132 3.0 0.0 0.00 0.00 0.00 39 1007.6
20260905194509 99 198 2.0 0.0 0.00 0.00 0.00 39 1007.9
20260905193011 97 59 5.0 0.0 0.00 0.00 0.00 43 1008.1
20260905191505 95 145 2.0 0.0 0.00 0.00 0.00 46 1008.3
20260905190007 94 170 1.0 0.0 0.00 0.00 0.00 46 1008.7
20260905184507 95 107 3.0 0.0 0.00 0.00 0.00 45 1009.0
20260905183001 96 175 2.0 0.0 0.00 0.00 0.00 45 1009.1
20260905181600 95 63 3.0 0.0 0.00 0.00 0.00 46 1009.3
20260905180057 93 63 2.0 0.0 0.00 0.00 0.00 49 1009.7
20260905174604 94 98 4.0 0.0 0.00 0.00 0.00 48 1009.8
20260905173108 93 83 4.0 0.0 0.00 0.00 0.00 49 1010.1
20260905171554 92 28 2.0 0.0 0.00 0.00 0.00 52 1010.2
20260905170053 92 197 2.0 0.0 0.00 0.00 0.00 51 1010.3
20260905164550 92 160 3.0 0.0 0.00 0.00 0.00 53 1010.4
20260905163053 91 83 4.0 0.0 0.00 0.00 0.00 54 1010.4
20260905161548 91 202 3.0 0.0 0.00 0.00 0.00 55 1010.5
20260905160052 90 200 2.0 0.0 0.00 0.00 0.00 58 1010.3
20260905154548 89 173 2.0 0.0 0.00 0.00 0.00 60 1010.3
20260905153039 88 182 2.0 0.0 0.00 0.00 0.00 62 1010.4
20260905151538 88 198 4.0 0.0 0.00 0.00 0.00 62 1010.3
20260905150035 87 206 4.0 0.0 0.00 0.00 0.00 63 1010.2
20260905144544 86 189 3.0 0.0 0.00 0.00 0.00 65 1010.2
20260905143028 84 185 3.0 0.0 0.00 0.00 0.00 71 1010.2
20260905141548 82 184 2.0 0.0 0.00 0.00 0.00 76 1010.2
20260905140026 81 178 1.0 0.0 0.00 0.00 0.00 80 1010.2
20260905134525 79 176 0.0 0.0 0.00 0.00 0.00 82 1010.2
20260905133034 78 177 0.0 0.0 0.00 0.00 0.00 84 1010.0
20260905131537 78 177 2.0 0.0 0.00 0.00 0.00 85 1009.7
20260905130026 77 178 0.0 0.0 0.00 0.00 0.00 87 1009.7
20260905124523 76 178 0.0 0.0 0.00 0.00 0.00 86 1009.7
20260905123020 76 178 0.0 0.0 0.00 0.00 0.00 85 1009.7
20260905121520 77 178 0.0 0.0 0.00 0.00 0.00 85 1009.6
20260905120018 77 178 0.0 0.0 0.00 0.00 0.00 84 1009.4
20260905114517 77 178 0.0 0.0 0.00 0.00 0.00 84 1009.5
20260905113018 77 178 0.0 0.0 0.00 0.00 0.00 83 1009.4
20260905111517 77 178 2.0 0.0 0.00 0.00 0.00 83 1009.2
20260905110016 77 178 0.0 0.0 0.00 0.00 0.00 83 1009.3
20260905104514 77 178 1.0 0.0 0.00 0.00 0.00 83 1009.2
20260905103028 78 178 1.0 0.0 0.00 0.00 0.00 82 1009.2
20260905101515 78 178 1.0 0.0 0.00 0.00 0.00 81 1009.2
20260905100011 78 178 1.0 0.0 0.00 0.00 0.00 81 1009.2
20260905094510 78 178 1.0 0.0 0.00 0.00 0.00 80 1009.2
20260905093009 78 178 0.0 0.0 0.00 0.00 0.00 79 1009.2
20260905091508 79 178 0.0 0.0 0.00 0.00 0.00 79 1009.2
20260905090007 79 179 1.0 0.0 0.00 0.00 0.00 79 1009.0
20260905084513 79 179 2.0 0.0 0.00 0.00 0.00 78 1008.8
20260905083004 79 160 1.0 0.0 0.00 0.00 0.00 77 1008.8
20260905081503 79 160 1.0 0.0 0.00 0.00 0.00 76 1008.8
20260905080002 80 161 2.0 0.0 0.00 0.00 0.00 76 1008.8
20260905074604 80 163 2.0 0.0 0.00 0.00 0.00 75 1008.9
20260905073106 81 164 2.0 0.0 0.00 0.00 0.00 74 1009.1
20260905071557 81 171 2.0 0.0 0.00 0.00 0.00 74 1009.2
20260905070055 81 174 2.0 0.0 0.00 0.00 0.00 74 1009.2
20260905064609 81 176 2.0 0.0 0.00 0.00 0.00 73 1009.3
20260905063058 82 171 2.0 0.0 0.00 0.00 0.00 72 1009.4
20260905061613 82 169 2.0 0.0 0.00 0.00 0.00 72 1009.4
20260905060051 82 168 2.0 0.0 0.00 0.00 0.00 71 1009.3
20260905054551 82 175 2.0 0.0 0.00 0.00 0.00 71 1009.2
20260905053049 83 158 1.0 0.0 0.00 0.00 0.00 71 1009.2
20260905051605 83 157 2.0 0.0 0.00 0.00 0.00 70 1009.2
20260905050044 84 154 3.0 0.0 0.00 0.00 0.00 69 1009.2
20260905044553 84 165 3.0 0.0 0.00 0.00 0.00 68 1009.1
20260905043044 84 142 3.0 0.0 0.00 0.00 0.00 67 1009.1
20260905041542 84 150 3.0 0.0 0.00 0.00 0.00 66 1009.1
20260905040051 85 138 2.0 0.0 0.00 0.00 0.00 66 1009.2
20260905034557 85 140 3.0 0.0 0.00 0.00 0.00 65 1009.2
20260905033100 86 140 3.0 0.0 0.00 0.00 0.00 63 1009.2
20260905031541 86 141 3.0 0.0 0.00 0.00 0.00 63 1009.2
20260905030040 87 129 3.0 0.0 0.00 0.00 0.00 62 1009.2
20260905024540 87 147 4.0 0.0 0.00 0.00 0.00 61 1008.9
20260905023116 88 148 4.0 0.0 0.00 0.00 0.00 60 1008.7